Morgantown, WV

12:10 AM EST on February 14, 2016 (GMT -0500)
Morgantown Municipal-Hart

Weather History for KMGW - July, 2014

Change the Weather History Date:

Wednesday, July 16, 2014

  Actual Average Record
Temperature  
Mean Temperature 67 °F 73 °F  
Max Temperature 76 °F 84 °F 100 °F (1988)
Min Temperature 57 °F 63 °F 49 °F (1954)
Degree Days  
Heating Degree Days 0 0  
Month to date heating degree days 0 0  
Since 1 June heating degree days 2 31  
Since 1 July heating degree days 0 0  
Cooling Degree Days 2 8  
Month to date cooling degree days 143 128  
Year to date cooling degree days 492 357  
Since 1 June cooling degree days 383 290  
Growing Degree Days 16 (Base 50)    
Moisture  
Dew Point 51 °F    
Average Humidity 62    
Maximum Humidity 87    
Minimum Humidity 36    
Precipitation  
Precipitation 0.00 in 0.16 in 1.00 in (1989)
Month to date precipitation 3.09 2.46  
Year to date precipitation 23.10 23.76  
Sea Level Pressure  
Sea Level Pressure 29.95 in    
Wind  
Wind Speed 4 mph (WSW)    
Max Wind Speed 12 mph    
Max Gust Speed 16 mph    
Visibility 10 miles    
Events      
T = Trace of Precipitation, MM = Missing Value Source: NWS Daily Summary

Daily Weather History Graph

Daily Weather History Graph

Search for Another Location

Airport or City:

Trip Planner

Search our weather history database for the weather conditions in past years. The results will help you decide how hot, cold, wet, or windy it might be!

Date:

Astronomy

Jul. 16, 2014 Rise Set
Actual Time 6:05 AM EDT 8:45 PM EDT
Civil Twilight 5:33 AM EDT 9:17 PM EDT
Nautical Twilight 4:54 AM EDT 9:56 PM EDT
Astronomical Twilight 4:09 AM EDT 10:40 PM EDT
Moon 11:30 PM EDT (7/16) 11:06 AM EDT (7/16)
Length of Visible Light 15h 43m
Length of Day
14h 40m
Waning Gibbous, 76% of the Moon is Illuminated
Jul 16
Waning Gibbous
Jul 18
Last Quarter
Jul 26
New
Aug 3
First Quarter
Aug 10
Full

Hourly Weather History & Observations

Time (EDT) Temp. Dew Point Humidity Pressure Visibility Wind Dir Wind Speed Gust Speed Precip Events Conditions
12:53 AM 60.1 °F 55.0 °F 83% 29.90 in 10.0 mi SSW 3.5 mph - N/A   Clear
1:53 AM 59.0 °F 55.0 °F 87% 29.90 in 10.0 mi South 5.8 mph - N/A   Clear
2:53 AM 59.0 °F 54.0 °F 83% 29.90 in 10.0 mi SSW 4.6 mph - N/A   Scattered Clouds
3:53 AM 60.1 °F 54.0 °F 80% 29.90 in 10.0 mi South 3.5 mph - N/A   Overcast
4:53 AM 59.0 °F 54.0 °F 83% 29.90 in 10.0 mi SSW 3.5 mph - N/A   Overcast
5:53 AM 57.9 °F 53.1 °F 84% 29.91 in 10.0 mi Calm Calm - N/A   Partly Cloudy
6:53 AM 57.9 °F 54.0 °F 87% 29.93 in 10.0 mi Calm Calm - N/A   Clear
7:53 AM 60.1 °F 54.0 °F 80% 29.94 in 10.0 mi SSW 3.5 mph - N/A   Mostly Cloudy
8:53 AM 63.0 °F 53.1 °F 70% 29.96 in 10.0 mi Calm Calm - N/A   Clear
9:53 AM 66.0 °F 52.0 °F 60% 29.97 in 10.0 mi Calm Calm - N/A   Partly Cloudy
10:53 AM 68.0 °F 48.9 °F 50% 29.98 in 10.0 mi Variable 3.5 mph - N/A   Mostly Cloudy
11:53 AM 70.0 °F 48.0 °F 46% 29.98 in 10.0 mi Variable 3.5 mph - N/A   Mostly Cloudy
12:53 PM 70.0 °F 48.0 °F 46% 29.98 in 10.0 mi Variable 5.8 mph - N/A   Mostly Cloudy
1:53 PM 72.0 °F 46.9 °F 41% 29.96 in 10.0 mi West 6.9 mph - N/A   Scattered Clouds
2:53 PM 73.9 °F 46.0 °F 37% 29.95 in 10.0 mi West 5.8 mph - N/A   Mostly Cloudy
3:53 PM 73.0 °F 46.9 °F 39% 29.95 in 10.0 mi West 8.1 mph - N/A   Mostly Cloudy
4:53 PM 75.0 °F 46.9 °F 37% 29.94 in 10.0 mi West 9.2 mph - N/A   Mostly Cloudy
5:53 PM 73.9 °F 48.0 °F 40% 29.95 in 10.0 mi West 10.4 mph - N/A   Scattered Clouds
6:53 PM 72.0 °F 48.0 °F 43% 29.96 in 10.0 mi West 6.9 mph - N/A   Mostly Cloudy
7:53 PM 71.1 °F 50.0 °F 47% 29.96 in 10.0 mi WNW 4.6 mph - N/A   Partly Cloudy
8:53 PM 69.1 °F 51.1 °F 53% 29.98 in 10.0 mi Variable 3.5 mph - N/A   Partly Cloudy
9:53 PM 64.9 °F 53.1 °F 65% 30.00 in 10.0 mi Calm Calm - N/A   Overcast
10:53 PM 64.0 °F 54.0 °F 70% 30.01 in 10.0 mi Calm Calm - N/A   Overcast
11:53 PM 60.1 °F 54.0 °F 80% 30.02 in 10.0 mi Calm Calm - N/A   Partly Cloudy